Content
SEND FEEDBACK

Daily
Averages
Monthly
Summary
United States of America

CHATHAM, MICHIGAN


Home > North America > United States > Michigan
Elevation: 869 feet     Latitude: 46 19N     Longitude: 086 55W

WEATHER
 
SELECT A DAY
Number of Records: 84,153;   Date Range: 12/1/04 - 9/30/14
 
SHARE

PRINT THIS DATA

[ ← Previous Day ]
WEATHER ALMANAC - FEBRUARY 13, 2013
[ Next Day → ]
[ °C ]   °F
Weather ElementAverageHighLow
Temperature27.7 °F39.9 °F (3:56 pm)19 °F (3:56 am)
Dewpoint18.8 °F23 °F (3:56 pm)12 °F (4:56 am)
Humidity70.2 %81 % (8:56 am)51 % (3:56 pm)
Barometer29.66 in29.74 in (1:56 am)29.62 in (2:56 pm)
Wind Speed4.9 mph11.5 mph (4:56 am)
Weather ElementAverage
Wind DirectionSE (133 °)

Weather ElementTotal
Precipitation---
Heating Degree Days35.6 (Base 65)
Averaged from 23 records on February 13, 2013
WEATHER CONDITIONS BREAKOUT
WIND DIRECTION BREAKOUT
WEATHER BY HOUR - FEBRUARY 13, 2013
[ °C ]   °F
Local TimeTemperatureDewpointHumidityBarometerVisibilityWind DirectionWind SpeedGust SpeedPrecipitationEventsConditions
1:56 AM19.9 °F12.9 °F74 %29.74 inSSW (210°)6.9 mph
2:56 AM19.9 °F12.9 °F74 %29.72 inSSW (200°)9.2 mph
3:56 AM19.0 °F12.9 °F77 %29.71 inSSW (200°)8.1 mph
4:56 AM19.0 °F12.0 °F74 %29.70 inSouth (190°)11.5 mph
5:56 AM19.0 °F12.9 °F77 %29.69 inSSW (210°)10.4 mph
6:56 AM19.9 °F14.0 °F78 %29.68 inSSW (200°)8.1 mph
7:56 AM21.0 °F15.1 °F78 %29.68 inSouth (180°)6.9 mph
8:56 AM19.9 °F15.1 °F81 %29.68 inSouth (190°)5.8 mph
9:56 AM24.1 °F16.0 °F71 %29.68 inSouth (180°)5.8 mph
10:56 AM27.0 °F19.0 °F72 %29.66 inSouth (180°)6.9 mph
11:56 AM32.0 °F21.0 °F64 %29.66 inSSE (160°)4.6 mph
12:56 PM34.0 °F21.9 °F61 %29.64 inSSE (160°)3.5 mph
1:56 PM36.0 °F21.9 °F57 %29.63 inCalm
2:56 PM37.9 °F21.9 °F53 %29.62 inSW (230°)5.8 mph
3:56 PM39.9 °F23.0 °F51 %29.62 inSouth (190°)5.8 mph
4:56 PM37.9 °F23.0 °F55 %29.62 inVariable4.6 mph
5:56 PM35.1 °F23.0 °F61 %29.62 inSouth (190°)5.8 mph
6:56 PM30.9 °F21.9 °F69 %29.63 inSouth (190°)3.5 mph
7:56 PM30.9 °F23.0 °F72 %29.64 inCalm
8:56 PM30.0 °F23.0 °F75 %29.65 inCalm
9:56 PM27.0 °F21.9 °F81 %29.65 inCalm
10:56 PM28.9 °F23.0 °F78 %29.65 inCalm
11:56 PM27.0 °F21.9 °F81 %29.64 inCalm
Hourly data recorded from KP53, located miles away from Chatham, Michigan







STORIES FROM OUR PARTNERS